Location: Shepherdstown, WV
(39.4326°N, 77.8042°W)
Time: 04:23:59
(UTC-04:00)

Vanguard 1 - Pass Details

Date: 04 October 2021
Orbit: 653 x 3829 km, 34.2° (Epoch: 18 October)

Event Time Altitude Azimuth Distance (km) Brightness Sun altitude
Rises 22:08:40 0° 278° (W) 5,951 14.9 -38.2°
Reaches altitude 10° 22:12:00 10° 275° (W) 5,284 14.4 -38.7°
Maximum altitude 22:29:01 62° 200° (SSW) 3,809 12.7 -41.5°
Enters shadow 22:32:35 58° 169° (S) 4,036 12.7 -42.0°
